Ossian — WDF2623 — position and weather

sailwx.info

Track history (hours):
 
Tides and Currents Weather Stations Pressure Air Temp Water Temp Dewpoint Dewpoint Depression Visibility Wind Speed Wind Dir Waves Ship Positions

Ossian

Owner: Hartzell, Scott R, Florence, OR. More information available from US FCC via Universal Licensing System and Coast Guard Vessel Documentation Center.

Last reported at 2014-Sep-25 17:19 UTC. Time now 2014-Oct-25 11:18 UTC.
Position N 46°11' W 124°11'.
Warning: this ship's position is 29 days out of date.

Length 26 m.

Type: Fishing. MMSI: 366773410.

Date/timePositionNaut miles runAvg speedWind from/ knotsBaromVisibWave heightAir tempDewpointWater temp
2014-Sep-25 17:19N 46°11' W 124°11'6 7.1
2014-Sep-25 16:30N 46°15' W 124°06'8 8.5
2014-Sep-25 15:33N 46°12' W 123°55'2 2.2
2014-Sep-25 14:33N 46°11' W 123°52'0 0.0
2014-Sep-25 13:33N 46°11' W 123°52'0 0.0
2014-Sep-25 12:33N 46°11' W 123°52'0 0.0
2014-Sep-25 11:33N 46°11' W 123°52'0 0.0
2014-Sep-25 10:33N 46°11' W 123°52'0 0.0
2014-Sep-25 09:33N 46°11' W 123°52'0 0.0
2014-Sep-25 08:33N 46°11' W 123°52'0 0.0
2014-Sep-25 07:33N 46°11' W 123°52'0 0.0
2014-Sep-25 06:33N 46°11' W 123°52'0 0.0
2014-Sep-25 05:33N 46°11' W 123°52'0 0.0
2014-Sep-25 04:33N 46°11' W 123°52'0 0.0
2014-Sep-25 03:33N 46°11' W 123°52'0 0.0
2014-Sep-25 02:33N 46°11' W 123°52'0 0.0
2014-Sep-25 01:33N 46°11' W 123°52'0 0.0
2014-Sep-25 00:33N 46°11' W 123°52'0 0.0
2014-Sep-24 23:33N 46°11' W 123°52'0 0.1
2014-Sep-24 22:33N 46°11' W 123°52'0 0.0
2014-Sep-24 21:33N 46°11' W 123°52'0 0.0
2014-Sep-24 20:33N 46°11' W 123°52'0 0.0
2014-Sep-24 19:33N 46°11' W 123°52'0 0.1
2014-Sep-24 18:33N 46°11' W 123°52'0 0.0
2014-Sep-24 17:33N 46°11' W 123°52'0 0.0
2014-Sep-24 16:33N 46°11' W 123°52'0 0.0
2014-Sep-24 15:33N 46°11' W 123°52'0 0.0
2014-Sep-24 14:33N 46°11' W 123°52'0 0.0
2014-Sep-24 13:33N 46°11' W 123°52'0 0.0
2014-Sep-24 12:33N 46°11' W 123°52'0 0.0
2014-Sep-24 11:33N 46°11' W 123°52'0 0.0
2014-Sep-24 10:33N 46°11' W 123°52'0 0.0
2014-Sep-24 09:33N 46°11' W 123°52'0 0.0
2014-Sep-24 08:33N 46°11' W 123°52'0 0.0
2014-Sep-24 07:33N 46°11' W 123°52'0 0.0
2014-Sep-24 06:33N 46°11' W 123°52'0 0.0
2014-Sep-24 05:33N 46°11' W 123°52'0 0.0
2014-Sep-24 04:33N 46°11' W 123°52'0 0.0
2014-Sep-24 03:33N 46°11' W 123°52'0 0.0
2014-Sep-24 02:33N 46°11' W 123°52'0 0.0
2014-Sep-24 01:33N 46°11' W 123°52'0 0.0
2014-Sep-24 00:33N 46°11' W 123°52'0 0.0
2014-Sep-23 23:28N 46°11' W 123°52'0 0.0
2014-Sep-23 22:33N 46°11' W 123°52'0 0.0
2014-Sep-23 21:33N 46°11' W 123°52'0 0.0
2014-Sep-23 20:33N 46°11' W 123°52'0 0.0
2014-Sep-23 19:33N 46°11' W 123°52'0 0.0
2014-Sep-23 18:33N 46°11' W 123°52'0 0.0
2014-Sep-23 17:33N 46°11' W 123°52'0 0.0
2014-Sep-23 16:33N 46°11' W 123°52'0 0.0
2014-Sep-23 15:33N 46°11' W 123°52'0 0.0
2014-Sep-23 14:33N 46°11' W 123°52'0 0.0
2014-Sep-23 13:33N 46°11' W 123°52'0 0.0
2014-Sep-23 12:33N 46°11' W 123°52'0 0.0
2014-Sep-23 11:33N 46°11' W 123°52'0 0.0
2014-Sep-23 10:33N 46°11' W 123°52'0 0.0
2014-Sep-23 09:33N 46°11' W 123°52'0 0.0
2014-Sep-23 08:33N 46°11' W 123°52'0 0.0
2014-Sep-23 07:33N 46°11' W 123°52'0 0.0
2014-Sep-23 06:33N 46°11' W 123°52'0 0.0
2014-Sep-23 05:33N 46°11' W 123°52'0 0.0
2014-Sep-23 04:33N 46°11' W 123°52'0 0.0
2014-Sep-23 03:33N 46°11' W 123°52'0 0.0
2014-Sep-23 02:33N 46°11' W 123°52'0 0.0
2014-Sep-23 01:33N 46°11' W 123°52'0 0.0
2014-Sep-23 00:33N 46°11' W 123°52'0 0.0
2014-Sep-22 23:33N 46°11' W 123°52'0 0.0
2014-Sep-22 22:33N 46°11' W 123°52'0 0.0
2014-Sep-22 21:33N 46°11' W 123°52'0 0.0
2014-Sep-22 20:33N 46°11' W 123°52'0 0.0
2014-Sep-22 19:33N 46°11' W 123°52'0 0.0
2014-Sep-22 18:33N 46°11' W 123°52'0 0.0
2014-Sep-22 17:33N 46°11' W 123°52'0 0.0
2014-Sep-22 16:33N 46°11' W 123°52'8 7.8
2014-Sep-22 15:33N 46°15' W 124°01'8 7.7
2014-Sep-22 14:31N 46°10' W 124°10'  
Track history (hours):
 
Tides and Currents Weather Stations Pressure Air Temp Water Temp Dewpoint Dewpoint Depression Visibility Wind Speed Wind Dir Waves Ship Positions

Ossian

Owner: Hartzell, Scott R, Florence, OR. More information available from US FCC via Universal Licensing System and Coast Guard Vessel Documentation Center.

Last reported at 2014-Sep-25 17:19 UTC. Time now 2014-Oct-25 11:18 UTC.
Position N 46°11' W 124°11'.
Warning: this ship's position is 29 days out of date.

Length 26 m.

Type: Fishing. MMSI: 366773410.

Date/timePositionNaut miles runAvg speedWind from/ knotsBaromVisibWave heightAir tempDewpointWater temp
2014-Sep-25 17:19N 46°11' W 124°11'6 7.1
2014-Sep-25 16:30N 46°15' W 124°06'8 8.5
2014-Sep-25 15:33N 46°12' W 123°55'2 2.2
2014-Sep-25 14:33N 46°11' W 123°52'0 0.0
2014-Sep-25 13:33N 46°11' W 123°52'0 0.0
2014-Sep-25 12:33N 46°11' W 123°52'0 0.0
2014-Sep-25 11:33N 46°11' W 123°52'0 0.0
2014-Sep-25 10:33N 46°11' W 123°52'0 0.0
2014-Sep-25 09:33N 46°11' W 123°52'0 0.0
2014-Sep-25 08:33N 46°11' W 123°52'0 0.0
2014-Sep-25 07:33N 46°11' W 123°52'0 0.0
2014-Sep-25 06:33N 46°11' W 123°52'0 0.0
2014-Sep-25 05:33N 46°11' W 123°52'0 0.0
2014-Sep-25 04:33N 46°11' W 123°52'0 0.0
2014-Sep-25 03:33N 46°11' W 123°52'0 0.0
2014-Sep-25 02:33N 46°11' W 123°52'0 0.0
2014-Sep-25 01:33N 46°11' W 123°52'0 0.0
2014-Sep-25 00:33N 46°11' W 123°52'0 0.0
2014-Sep-24 23:33N 46°11' W 123°52'0 0.1
2014-Sep-24 22:33N 46°11' W 123°52'0 0.0
2014-Sep-24 21:33N 46°11' W 123°52'0 0.0
2014-Sep-24 20:33N 46°11' W 123°52'0 0.0
2014-Sep-24 19:33N 46°11' W 123°52'0 0.1
2014-Sep-24 18:33N 46°11' W 123°52'0 0.0
2014-Sep-24 17:33N 46°11' W 123°52'0 0.0
2014-Sep-24 16:33N 46°11' W 123°52'0 0.0
2014-Sep-24 15:33N 46°11' W 123°52'0 0.0
2014-Sep-24 14:33N 46°11' W 123°52'0 0.0
2014-Sep-24 13:33N 46°11' W 123°52'0 0.0
2014-Sep-24 12:33N 46°11' W 123°52'0 0.0
2014-Sep-24 11:33N 46°11' W 123°52'0 0.0
2014-Sep-24 10:33N 46°11' W 123°52'0 0.0
2014-Sep-24 09:33N 46°11' W 123°52'0 0.0
2014-Sep-24 08:33N 46°11' W 123°52'0 0.0
2014-Sep-24 07:33N 46°11' W 123°52'0 0.0
2014-Sep-24 06:33N 46°11' W 123°52'0 0.0
2014-Sep-24 05:33N 46°11' W 123°52'0 0.0
2014-Sep-24 04:33N 46°11' W 123°52'0 0.0
2014-Sep-24 03:33N 46°11' W 123°52'0 0.0
2014-Sep-24 02:33N 46°11' W 123°52'0 0.0
2014-Sep-24 01:33N 46°11' W 123°52'0 0.0
2014-Sep-24 00:33N 46°11' W 123°52'0 0.0
2014-Sep-23 23:28N 46°11' W 123°52'0 0.0
2014-Sep-23 22:33N 46°11' W 123°52'0 0.0
2014-Sep-23 21:33N 46°11' W 123°52'0 0.0
2014-Sep-23 20:33N 46°11' W 123°52'0 0.0
2014-Sep-23 19:33N 46°11' W 123°52'0 0.0
2014-Sep-23 18:33N 46°11' W 123°52'0 0.0
2014-Sep-23 17:33N 46°11' W 123°52'0 0.0
2014-Sep-23 16:33N 46°11' W 123°52'0 0.0
2014-Sep-23 15:33N 46°11' W 123°52'0 0.0
2014-Sep-23 14:33N 46°11' W 123°52'0 0.0
2014-Sep-23 13:33N 46°11' W 123°52'0 0.0
2014-Sep-23 12:33N 46°11' W 123°52'0 0.0
2014-Sep-23 11:33N 46°11' W 123°52'0 0.0
2014-Sep-23 10:33N 46°11' W 123°52'0 0.0
2014-Sep-23 09:33N 46°11' W 123°52'0 0.0
2014-Sep-23 08:33N 46°11' W 123°52'0 0.0
2014-Sep-23 07:33N 46°11' W 123°52'0 0.0
2014-Sep-23 06:33N 46°11' W 123°52'0 0.0
2014-Sep-23 05:33N 46°11' W 123°52'0 0.0
2014-Sep-23 04:33N 46°11' W 123°52'0 0.0
2014-Sep-23 03:33N 46°11' W 123°52'0 0.0
2014-Sep-23 02:33N 46°11' W 123°52'0 0.0
2014-Sep-23 01:33N 46°11' W 123°52'0 0.0
2014-Sep-23 00:33N 46°11' W 123°52'0 0.0
2014-Sep-22 23:33N 46°11' W 123°52'0 0.0
2014-Sep-22 22:33N 46°11' W 123°52'0 0.0
2014-Sep-22 21:33N 46°11' W 123°52'0 0.0
2014-Sep-22 20:33N 46°11' W 123°52'0 0.0
2014-Sep-22 19:33N 46°11' W 123°52'0 0.0
2014-Sep-22 18:33N 46°11' W 123°52'0 0.0
2014-Sep-22 17:33N 46°11' W 123°52'0 0.0
2014-Sep-22 16:33N 46°11' W 123°52'8 7.8
2014-Sep-22 15:33N 46°15' W 124°01'8 7.7
2014-Sep-22 14:31N 46°10' W 124°10'  

Dump ship's entire track history